McAlester, OK

9:11 AM CDT on April 26, 2017 (GMT -0500)
McAlester Regional

Weather History for KMLC - December, 2012

Change the Weather History Date:

Tuesday, December 4, 2012

  Actual Average Record
Temperature  
Mean Temperature 57 °F -  
Max Temperature 68 °F 55 °F 73 °F (1956)
Min Temperature 42 °F 31 °F 18 °F (1978)
Degree Days  
Heating Degree Days 8    
Growing Degree Days 7 (Base 50)    
Moisture  
Dew Point 40 °F    
Average Humidity 53    
Maximum Humidity 78    
Minimum Humidity 20    
Precipitation  
Precipitation 0.00 in - - ()
Sea Level Pressure  
Sea Level Pressure 30.15 in    
Wind  
Wind Speed 10 mph (NNE)    
Max Wind Speed 20 mph    
Max Gust Speed 26 mph    
Visibility 10 miles    
Events      
Averages and records for this station are not official NWS values.
T = Trace of Precipitation, MM = Missing Value Source: NWS Daily Summary

Daily Weather History Graph

Daily Weather History Graph

Search for Another Location

Airport or City:

Trip Planner

Search our weather history database for the weather conditions in past years. The results will help you decide how hot, cold, wet, or windy it might be!

Date:

Astronomy

Dec. 04, 2012 Rise Set
Actual Time 7:15 AM CST 5:11 PM CST
Civil Twilight 6:47 AM CST 5:39 PM CST
Nautical Twilight 6:16 AM CST 6:10 PM CST
Astronomical Twilight 5:45 AM CST 6:41 PM CST
Moon 10:50 PM CST (12/4) 11:18 AM CST (12/4)
Length of Visible Light 10h 51m
Length of Day
9h 56m
Waning Gibbous, 69% of the Moon is Illuminated
Dec 4
Waning Gibbous
Dec 6
Last Quarter
Dec 13
New
Dec 19
First Quarter
Dec 28
Full

Hourly Weather History & Observations

Time (CST) Temp. Dew Point Humidity Pressure Visibility Wind Dir Wind Speed Gust Speed Precip Events Conditions
12:53 AM 68.0 °F 57.9 °F 70% 29.94 in 10.0 mi South 9.2 mph 16.1 mph N/A   Partly Cloudy
1:53 AM 68.0 °F 59.0 °F 73% 29.96 in 10.0 mi SSW 9.2 mph - N/A   Mostly Cloudy
2:50 AM 66.2 °F 59.0 °F 78% 29.98 in 10.0 mi SSW 4.6 mph - N/A   Overcast
2:53 AM 66.9 °F 59.0 °F 76% 29.96 in 10.0 mi SSW 6.9 mph - N/A   Overcast
3:53 AM 66.0 °F 59.0 °F 78% 29.97 in 10.0 mi Calm Calm - N/A   Overcast
4:53 AM 59.0 °F 50.0 °F 72% 30.01 in 10.0 mi North 15.0 mph - N/A   Overcast
5:53 AM 59.0 °F 46.0 °F 62% 30.06 in 10.0 mi North 15.0 mph - N/A   Overcast
6:45 AM 57.2 °F 44.6 °F 63% 30.09 in 10.0 mi NNE 16.1 mph 25.3 mph N/A   Mostly Cloudy
6:53 AM 57.9 °F 45.0 °F 62% 30.09 in 10.0 mi North 11.5 mph - N/A   Mostly Cloudy
7:09 AM 57.2 °F 44.6 °F 63% 30.12 in 10.0 mi North 13.8 mph 20.7 mph N/A   Mostly Cloudy
7:35 AM 55.4 °F 44.6 °F 67% 30.14 in 10.0 mi North 15.0 mph - N/A   Scattered Clouds
7:53 AM 55.9 °F 43.0 °F 62% 30.14 in 10.0 mi North 18.4 mph 23.0 mph N/A   Mostly Cloudy
8:53 AM 57.0 °F 39.0 °F 51% 30.17 in 10.0 mi NNE 16.1 mph 23.0 mph N/A   Clear
9:53 AM 60.1 °F 39.0 °F 46% 30.19 in 10.0 mi North 19.6 mph 23.0 mph N/A   Clear
10:53 AM 63.0 °F 39.0 °F 41% 30.19 in 10.0 mi North 17.3 mph 23.0 mph N/A   Mostly Cloudy
11:53 AM 64.0 °F 39.0 °F 40% 30.21 in 10.0 mi North 15.0 mph - N/A   Scattered Clouds
12:53 PM 66.0 °F 33.1 °F 29% 30.19 in 10.0 mi NNE 11.5 mph 23.0 mph N/A   Clear
1:53 PM 66.0 °F 26.1 °F 22% 30.18 in 10.0 mi North 18.4 mph 26.5 mph N/A   Partly Cloudy
2:53 PM 64.9 °F 23.0 °F 20% 30.19 in 10.0 mi North 18.4 mph - N/A   Clear
3:53 PM 64.0 °F 28.0 °F 26% 30.20 in 10.0 mi NNE 12.7 mph 21.9 mph N/A   Scattered Clouds
4:53 PM 61.0 °F 30.9 °F 32% 30.23 in 10.0 mi NNE 9.2 mph - N/A   Clear
5:53 PM 54.0 °F 30.9 °F 41% 30.24 in 10.0 mi NNE 4.6 mph - N/A   Clear
6:53 PM 52.0 °F 30.0 °F 43% 30.25 in 10.0 mi North 5.8 mph - N/A   Partly Cloudy
7:53 PM 50.0 °F 30.9 °F 48% 30.27 in 10.0 mi North 6.9 mph - N/A   Clear
8:53 PM 50.0 °F 32.0 °F 50% 30.27 in 10.0 mi North 8.1 mph - N/A   Partly Cloudy
9:53 PM 50.0 °F 33.1 °F 52% 30.29 in 10.0 mi ENE 3.5 mph - N/A   Clear
10:53 PM 46.9 °F 33.1 °F 59% 30.30 in 10.0 mi NE 4.6 mph - N/A   Partly Cloudy
11:53 PM 42.1 °F 32.0 °F 67% 30.31 in 10.0 mi Calm Calm - N/A   Partly Cloudy